Location: Peebles
(55.6412°N, 3.1714°W)
Time: 13:00:07
(UTC+00:00)

RS-15 - Pass Details

Date: 05 December 2023
Orbit: 1893 x 2151 km, 64.8° (Epoch: 02 March)

Event Time Altitude Azimuth Distance (km) Brightness Sun altitude
Exits shadow 02:38:33 61° 17° (NNE) 2,212 8.2 -46.0°
Maximum altitude 02:38:41 61° 20° (NNE) 2,210 8.2 -46.0°
Drops below altitude 10° 02:49:45 10° 100° (E) 4,339 10.2 -44.7°
Sets 02:53:03 0° 104° (ESE) 5,313 10.8 -44.3°
